Location: Hookston
(37.9413°N, 122.0527°W)
Time: 13:11:55
(UTC+00:00)

Meteor 2-16 Rocket - Visible Passes

Search period start: 03 October 2024 00:00
Search period end: 13 October 2024 00:00
Orbit: 941 x 956 km, 82.6° (Epoch: 02 October)

Date Brightness Start Highest point End Pass type
(mag) Time Alt. Az. Time Alt. Az. Time Alt. Az.
03 Oct 5.7 11:52:49 10° SSE 11:58:21 39° E 12:03:57 10° NNE visible
03 Oct 5.3 13:38:12 10° SW 13:43:16 27° WNW 13:48:24 10° NNW visible
04 Oct 4.8 12:09:37 10° S 12:15:35 64° E 12:21:36 10° NNE visible
05 Oct 7.2 10:46:37 10° ESE 10:48:57 12° E 10:51:17 10° ENE visible
05 Oct 4.3 12:26:51 10° S 12:32:55 81° W 12:39:02 10° N visible
06 Oct 6.6 11:01:35 10° SE 11:05:57 21° E 11:10:20 10° NE visible
06 Oct 4.6 12:44:28 10° SSW 12:50:19 50° W 12:56:14 10° N visible
07 Oct 5.9 11:17:42 10° SSE 11:23:03 34° E 11:28:26 10° NNE visible
07 Oct 5.1 13:02:32 10° SW 13:07:50 31° WNW 13:13:12 10° NNW visible
08 Oct 5.0 11:36:49 25° SSE 11:40:15 55° E 11:46:11 10° NNE visible
08 Oct 5.6 13:21:11 10° WSW 13:25:28 20° WNW 13:29:48 10° NNW visible
09 Oct 7.2 10:12:48 10° E 10:13:42 10° E 10:14:36 10° ENE visible
09 Oct 4.3 11:55:37 47° S 11:57:33 89° E 12:03:40 10° N visible
09 Oct 6.1 13:41:03 10° W 13:43:13 12° WNW 13:45:24 10° NW visible
10 Oct 6.7 10:29:57 18° E 10:30:41 18° E 10:34:37 10° NE visible
10 Oct 4.4 12:14:07 53° WSW 12:14:56 58° W 12:20:56 10° N visible
11 Oct 6.0 10:48:16 29° ENE 10:48:16 29° ENE 10:52:54 10° NNE visible
11 Oct 4.9 12:32:26 36° WNW 12:32:26 36° WNW 12:37:59 10° N visible
12 Oct 5.5 11:06:26 40° NE 11:06:26 40° NE 11:10:44 10° NNE visible
12 Oct 5.6 12:50:35 22° WNW 12:50:35 22° WNW 12:54:43 10° NNW visible
